,,PA_Meas_PMT16A,,PR_Meas_QMR101_102,,RH_Meas_QMH101,,SR_Meas_QMS101,,TA_Meas_QMH101,,GenWind,,GenWind,
time,status,PA,status,PR,status,RH,status,SR,status,TA,status,DirAvg,status,SpdAvg,
2009-09-06, 00:00:04,VALID,919.147,VALID,0,VALID,92.838,VALID,0,VALID,20.0523,VALID,26,VALID,1.19727,
2009-09-06, 00:01:04,VALID,919.111,VALID,0,VALID,92.8761,VALID,0,VALID,20.0718,VALID,26,VALID,1.61445,
2009-09-06, 00:02:04,VALID,919.106,VALID,0,VALID,92.8456,VALID,0,VALID,20.0718,VALID,26,VALID,1.07266,
2009-09-06, 00:03:04,VALID,919.058,VALID,0,VALID,92.8761,VALID,0,VALID,20.0928,VALID,26,VALID,1.03516,
2009-09-06, 00:04:04,VALID,919.014,VALID,0,VALID,92.8456,VALID,0.107441,VALID,20.0718,VALID,25,VALID,1.00703,
2009-09-06, 00:05:04,VALID,918.959,VALID,0,VALID,92.8913,VALID,0,VALID,20.0913,VALID,25,VALID,1.03945,
2009-09-06, 00:06:04,VALID,918.966,VALID,0,VALID,92.8075,VALID,0,VALID,20.0913,VALID,25,VALID,0.881641,
2009-09-06, 00:07:04,VALID,919.004,VALID,0,VALID,93.0667,VALID,0.107441,VALID,20.1108,VALID,25,VALID,1.07656,
2009-09-06, 00:08:04,VALID,918.998,VALID,0,VALID,93.1658,VALID,0,VALID,20.0718,VALID,25,VALID,1.26953,
2009-09-06, 00:09:04,VALID,918.969,VALID,0,VALID,93.1505,VALID,0,VALID,20.0913,VALID,25,VALID,1.2707,
2009-09-06, 00:10:04,VALID,918.992,VALID,0,VALID,92.9599,VALID,0,VALID,20.0913,VALID,24,VALID,0.964453,
2009-09-06, 00:11:04,VALID,918.976,VALID,0,VALID,93.0895,VALID,0,VALID,20.0913,VALID,21,VALID,1.05977,
2009-09-06, 00:12:04,VALID,918.949,VALID,0,VALID,93.3411,VALID,0,VALID,20.0913,VALID,357,VALID,1.25625,
2009-09-06, 00:13:04,VALID,918.953,VALID,0,VALID,93.2649,VALID,0,VALID,20.1303,VALID,357,VALID,1.08867,
2009-09-06, 00:14:04,VALID,918.914,VALID,0,VALID,93.1658,VALID,0,VALID,20.1498,VALID,357,VALID,1.3832,
2009-09-06, 00:15:04,VALID,918.867,VALID,0,VALID,93.1505,VALID,0,VALID,20.1498,VALID,357,VALID,0.90625,
2009-09-06, 00:16:04,VALID,918.819,VALID,0,VALID,93.0895,VALID,0.107441,VALID,20.1498,VALID,357,VALID,0.834766,
2009-09-06, 00:17:04,VALID,918.813,VALID,0,VALID,93.1963,VALID,0,VALID,20.1708,VALID,357,VALID,1.0043,
2009-09-06, 00:18:04,VALID,918.796,VALID,0,VALID,93.3868,VALID,0,VALID,20.1498,VALID,357,VALID,0.972266,
2009-09-06, 00:19:04,VALID,918.792,VALID,0,VALID,93.4173,VALID,0,VALID,20.1498,VALID,357,VALID,0.608594,
2009-09-06, 00:20:04,VALID,918.79,VALID,0,VALID,93.3792,VALID,0,VALID,20.1693,VALID,357,VALID,0.244141,
2009-09-06, 00:21:04,VALID,918.73,VALID,0,VALID,93.3335,VALID,0,VALID,20.1888,VALID,357,VALID,0.0613281,
2009-09-06, 00:22:04,VALID,918.732,VALID,0,VALID,93.2115,VALID,0,VALID,20.2083,VALID,357,VALID,0.071875,
2009-09-06, 00:23:04,VALID,918.732,VALID,0,VALID,92.8532,VALID,0.107441,VALID,20.2083,VALID,357,VALID,0.078125,
2009-09-06, 00:24:04,VALID,918.71,VALID,0,VALID,93.1353,VALID,0,VALID,20.2083,VALID,357,VALID,0.376563,
2009-09-06, 00:25:04,VALID,918.686,VALID,0,VALID,93.2649,VALID,0,VALID,20.1873,VALID,357,VALID,0.671484,
2009-09-06, 00:26:04,VALID,918.663,VALID,0,VALID,92.9904,VALID,0,VALID,20.2473,VALID,357,VALID,0.429297,
2009-09-06, 00:27:04,VALID,918.635,VALID,0,VALID,92.9371,VALID,0,VALID,20.2473,VALID,357,VALID,0.308203,
2009-09-06, 00:28:04,VALID,918.641,VALID,0,VALID,92.7922,VALID,0,VALID,20.2668,VALID,357,VALID,0.494531,
2009-09-06, 00:29:04,VALID,918.599,VALID,0,VALID,92.777,VALID,0,VALID,20.2473,VALID,357,VALID,0.641016,
2009-09-06, 00:30:04,VALID,918.574,VALID,0,VALID,92.7693,VALID,0,VALID,20.1888,VALID,357,VALID,0.723828,
2009-09-06, 00:31:04,VALID,918.588,VALID,0,VALID,93.0743,VALID,0,VALID,20.1498,VALID,357,VALID,0.695703,
2009-09-06, 00:32:04,VALID,918.579,VALID,0,VALID,93.2572,VALID,0,VALID,20.1108,VALID,357,VALID,0.766016,
2009-09-06, 00:33:04,VALID,918.565,VALID,0,VALID,93.4021,VALID,0,VALID,20.0718,VALID,357,VALID,0.766406,
2009-09-06, 00:34:04,VALID,918.556,VALID,0,VALID,93.5164,VALID,0,VALID,20.0913,VALID,357,VALID,0.737891,
2009-09-06, 00:35:04,VALID,918.544,VALID,0,VALID,93.5088,VALID,0,VALID,20.0523,VALID,357,VALID,0.837109,
2009-09-06, 00:36:04,VALID,918.557,VALID,0,VALID,93.6613,VALID,0,VALID,20.0328,VALID,357,VALID,0.785156,
2009-09-06, 00:37:04,VALID,918.523,VALID,0,VALID,93.7299,VALID,0,VALID,19.9938,VALID,357,VALID,0.634375,
2009-09-06, 00:38:04,VALID,918.515,VALID,0,VALID,93.829,VALID,0,VALID,19.9938,VALID,357,VALID,0.762109,
2009-09-06, 00:39:04,VALID,918.473,VALID,0,VALID,93.951,VALID,0,VALID,19.9533,VALID,357,VALID,0.891797,
2009-09-06, 00:40:04,VALID,918.486,VALID,0,VALID,93.8976,VALID,0.107441,VALID,19.9338,VALID,357,VALID,0.880469,
2009-09-06, 00:41:04,VALID,918.47,VALID,0,VALID,94.012,VALID,0,VALID,19.9338,VALID,357,VALID,0.848047,
2009-09-06, 00:42:04,VALID,918.46,VALID,0,VALID,94.2178,VALID,0.107441,VALID,19.9548,VALID,357,VALID,0.819531,
2009-09-06, 00:43:04,VALID,918.456,VALID,0,VALID,94.1492,VALID,0.107441,VALID,19.9533,VALID,357,VALID,0.983203,
2009-09-06, 00:44:04,VALID,918.431,VALID,0,VALID,94.0958,VALID,0,VALID,19.9728,VALID,357,VALID,0.866406,
2009-09-06, 00:45:04,VALID,918.427,VALID,0,VALID,93.829,VALID,0.107441,VALID,19.9938,VALID,357,VALID,0.694531,
2009-09-06, 00:46:04,VALID,918.41,VALID,0,VALID,93.768,VALID,0,VALID,19.9923,VALID,357,VALID,0.791406,
2009-09-06, 00:47:04,VALID,918.407,VALID,0,VALID,93.5927,VALID,0.107441,VALID,20.0328,VALID,357,VALID,0.610156,
2009-09-06, 00:48:04,VALID,918.376,VALID,0,VALID,93.6003,VALID,0.107441,VALID,19.9923,VALID,357,VALID,0.388672,
2009-09-06, 00:49:04,VALID,918.373,VALID,0,VALID,93.7756,VALID,0.107441,VALID,19.9533,VALID,357,VALID,0.571484,
2009-09-06, 00:50:04,VALID,918.339,VALID,0,VALID,93.6994,VALID,0,VALID,19.9353,VALID,357,VALID,0.485938,
2009-09-06, 00:51:04,VALID,918.367,VALID,0,VALID,94.0348,VALID,0,VALID,19.8948,VALID,357,VALID,0.516797,
2009-09-06, 00:52:04,VALID,918.347,VALID,0,VALID,94.1492,VALID,0.107441,VALID,19.8948,VALID,357,VALID,0.595312,
2009-09-06, 00:53:04,VALID,918.335,VALID,0,VALID,94.2559,VALID,0,VALID,19.8558,VALID,357,VALID,0.516797,
2009-09-06, 00:54:04,VALID,918.316,VALID,0,VALID,94.2635,VALID,0,VALID,19.9173,VALID,357,VALID,0.649219,
2009-09-06, 00:55:04,VALID,918.317,VALID,0,VALID,93.951,VALID,0,VALID,19.8768,VALID,357,VALID,0.816797,
2009-09-06, 00:56:04,VALID,918.305,VALID,0,VALID,93.8595,VALID,0,VALID,19.8963,VALID,357,VALID,0.551953,
2009-09-06, 00:57:04,VALID,918.268,VALID,0,VALID,93.768,VALID,0,VALID,19.8963,VALID,357,VALID,0.279297,
2009-09-06, 00:58:04,VALID,918.263,VALID,0,VALID,94.1644,VALID,0,VALID,19.9173,VALID,357,VALID,0.487891,
2009-09-06, 00:59:04,VALID,918.258,VALID,0,VALID,94.2559,VALID,0,VALID,19.9353,VALID,357,VALID,0.323828,
2009-09-06, 01:00:04,VALID,918.23,VALID,0,VALID,94.1034,VALID,0,VALID,19.9743,VALID,357,VALID,0,
2009-09-06, 01:01:04,VALID,918.21,VALID,0,VALID,92.8685,VALID,0,VALID,19.9368,VALID,357,VALID,0.194141,
2009-09-06, 01:02:04,VALID,918.214,VALID,0,VALID,93.1276,VALID,0,VALID,19.8963,VALID,357,VALID,0.232422,
2009-09-06, 01:03:04,VALID,918.204,VALID,0,VALID,93.2344,VALID,0,VALID,19.8573,VALID,357,VALID,0.629297,
2009-09-06, 01:04:04,VALID,918.192,VALID,0,VALID,94.1339,VALID,0,VALID,19.8378,VALID,357,VALID,0.428125,
2009-09-06, 01:05:04,VALID,918.194,VALID,0,VALID,94.3245,VALID,0,VALID,19.8393,VALID,357,VALID,0.441797,
2009-09-06, 01:06:04,VALID,918.199,VALID,0,VALID,94.0501,VALID,0,VALID,19.8378,VALID,357,VALID,0.459766,
2009-09-06, 01:07:04,VALID,918.169,VALID,0,VALID,94.073,VALID,0,VALID,19.8378,VALID,357,VALID,0.0878906,
2009-09-06, 01:08:04,VALID,918.175,VALID,0,VALID,93.9662,VALID,0,VALID,19.8558,VALID,357,VALID,0.376563,
2009-09-06, 01:09:04,VALID,918.153,VALID,0,VALID,94.1416,VALID,0,VALID,19.8753,VALID,357,VALID,0.544922,
2009-09-06, 01:10:04,VALID,918.144,VALID,0,VALID,94.3245,VALID,0,VALID,19.9548,VALID,357,VALID,0.18125,
2009-09-06, 01:11:04,VALID,918.123,VALID,0,VALID,94.3398,VALID,0,VALID,19.9548,VALID,357,VALID,0,
2009-09-06, 01:12:04,VALID,918.132,VALID,0,VALID,93.6308,VALID,0.107441,VALID,19.9143,VALID,357,VALID,0.248047,
2009-09-06, 01:13:04,VALID,918.102,VALID,0,VALID,93.4859,VALID,0.107441,VALID,19.8753,VALID,357,VALID,0.214453,
2009-09-06, 01:14:04,VALID,918.071,VALID,0,VALID,93.768,VALID,0,VALID,19.8753,VALID,357,VALID,0.3125,
2009-09-06, 01:15:04,VALID,918.049,VALID,0,VALID,93.768,VALID,0.107441,VALID,19.8168,VALID,357,VALID,0.657422,
2009-09-06, 01:16:04,VALID,918.072,VALID,0,VALID,94.3931,VALID,0,VALID,19.8168,VALID,357,VALID,0.991016,
2009-09-06, 01:17:04,VALID,918.058,VALID,0,VALID,94.2559,VALID,0,VALID,19.7988,VALID,357,VALID,1.00977,
2009-09-06, 01:18:04,VALID,918.058,VALID,0,VALID,93.9738,VALID,0.107441,VALID,19.7778,VALID,357,VALID,0.657422,
2009-09-06, 01:19:04,VALID,918.04,VALID,0,VALID,93.9967,VALID,0.107441,VALID,19.8183,VALID,357,VALID,0.879297,
2009-09-06, 01:20:04,VALID,918.045,VALID,0,VALID,93.6765,VALID,0,VALID,19.8168,VALID,357,VALID,0.820703,
2009-09-06, 01:21:04,VALID,918.024,VALID,0,VALID,93.4936,VALID,0,VALID,19.8363,VALID,357,VALID,0.509375,
2009-09-06, 01:22:04,VALID,918.058,VALID,0,VALID,93.8976,VALID,0.107441,VALID,19.8963,VALID,357,VALID,0.7625,
2009-09-06, 01:23:04,VALID,918.043,VALID,0,VALID,93.9129,VALID,0,VALID,19.8948,VALID,357,VALID,0.767969,
2009-09-06, 01:24:04,VALID,918.046,VALID,0,VALID,93.6842,VALID,0.107441,VALID,19.9548,VALID,357,VALID,0.552344,
2009-09-06, 01:25:04,VALID,918.04,VALID,0,VALID,93.5393,VALID,0.107441,VALID,19.9743,VALID,357,VALID,0.682813,
2009-09-06, 01:26:04,VALID,918.026,VALID,0,VALID,93.3487,VALID,0,VALID,19.9728,VALID,357,VALID,0.380469,
2009-09-06, 01:27:04,VALID,918.053,VALID,0,VALID,93.1429,VALID,0.107441,VALID,19.9728,VALID,357,VALID,0.322656,
2009-09-06, 01:28:04,VALID,918.015,VALID,0,VALID,93.0743,VALID,0.107441,VALID,19.9533,VALID,357,VALID,0.0410156,
2009-09-06, 01:29:04,VALID,918.019,VALID,0,VALID,93.2954,VALID,0,VALID,19.9533,VALID,357,VALID,0,
2009-09-06, 01:30:04,VALID,917.982,VALID,0,VALID,93.4402,VALID,0,VALID,19.9533,VALID,357,VALID,0.363281,
2009-09-06, 01:31:04,VALID,917.972,VALID,0,VALID,93.8061,VALID,0,VALID,19.9338,VALID,357,VALID,0.20625,
2009-09-06, 01:32:04,VALID,917.927,VALID,0,VALID,93.5469,VALID,0.107441,VALID,19.9143,VALID,357,VALID,0,
2009-09-06, 01:33:04,VALID,917.912,VALID,0,VALID,93.7299,VALID,0.107441,VALID,19.9143,VALID,357,VALID,0.347656,
2009-09-06, 01:34:04,VALID,917.933,VALID,0,VALID,93.9662,VALID,0.107441,VALID,19.8933,VALID,357,VALID,0.177734,
2009-09-06, 01:35:04,VALID,917.933,VALID,0,VALID,93.9815,VALID,0.107441,VALID,19.9143,VALID,357,VALID,0.132813,
2009-09-06, 01:36:04,VALID,917.934,VALID,0,VALID,93.6918,VALID,0.107441,VALID,19.8753,VALID,357,VALID,0,
2009-09-06, 01:37:04,VALID,917.933,VALID,0,VALID,94.1187,VALID,0,VALID,19.8948,VALID,357,VALID,0,
2009-09-06, 01:38:04,VALID,917.929,VALID,0,VALID,93.6003,VALID,0,VALID,19.8573,VALID,357,VALID,0,
2009-09-06, 01:39:04,VALID,917.886,VALID,0,VALID,93.646,VALID,0,VALID,19.8588,VALID,357,VALID,0,
2009-09-06, 01:40:04,VALID,917.895,VALID,0,VALID,94.1492,VALID,0,VALID,19.8588,VALID,357,VALID,0.267578,
2009-09-06, 01:41:04,VALID,917.896,VALID,0,VALID,94.4694,VALID,0,VALID,19.8378,VALID,357,VALID,0,
2009-09-06, 01:42:04,VALID,917.876,VALID,0,VALID,94.5075,VALID,0,VALID,19.8183,VALID,357,VALID,0,
2009-09-06, 01:43:04,VALID,917.872,VALID,0,VALID,94.2788,VALID,0,VALID,19.8393,VALID,357,VALID,0.437109,
2009-09-06, 01:44:04,VALID,917.863,VALID,0,VALID,94.3931,VALID,0,VALID,19.8183,VALID,357,VALID,0.316016,
2009-09-06, 01:45:04,VALID,917.844,VALID,0,VALID,94.5837,VALID,0,VALID,19.8378,VALID,357,VALID,0,
2009-09-06, 01:46:04,VALID,917.826,VALID,0,VALID,94.3398,VALID,0,VALID,19.8183,VALID,357,VALID,0.387109,
2009-09-06, 01:47:04,VALID,917.811,VALID,0,VALID,94.3474,VALID,0,VALID,19.8198,VALID,357,VALID,0.0707031,
2009-09-06, 01:48:04,VALID,917.813,VALID,0,VALID,94.5075,VALID,0,VALID,19.8198,VALID,357,VALID,0,
2009-09-06, 01:49:04,VALID,917.793,VALID,0,VALID,94.5837,VALID,0,VALID,19.7988,VALID,357,VALID,0,
2009-09-06, 01:50:04,VALID,917.769,VALID,0,VALID,94.5151,VALID,0,VALID,19.7988,VALID,357,VALID,0.307422,
2009-09-06, 01:51:04,VALID,917.758,VALID,0,VALID,94.4084,VALID,0,VALID,19.7988,VALID,357,VALID,0.446484,
2009-09-06, 01:52:04,VALID,917.734,VALID,0,VALID,94.416,VALID,0,VALID,19.7793,VALID,357,VALID,0.516797,
2009-09-06, 01:53:04,VALID,917.74,VALID,0,VALID,94.4617,VALID,0,VALID,19.7598,VALID,357,VALID,0.199609,
2009-09-06, 01:54:04,VALID,917.745,VALID,0,VALID,94.4541,VALID,0,VALID,19.7403,VALID,357,VALID,0.440234,
2009-09-06, 01:55:04,VALID,917.738,VALID,0,VALID,94.599,VALID,0,VALID,19.7418,VALID,357,VALID,0.404297,
2009-09-06, 01:56:04,VALID,917.71,VALID,0,VALID,94.8963,VALID,0,VALID,19.7418,VALID,357,VALID,0.526953,
2009-09-06, 01:57:04,VALID,917.685,VALID,0,VALID,94.9344,VALID,0,VALID,19.7013,VALID,357,VALID,0.560547,
2009-09-06, 01:58:04,VALID,917.683,VALID,0,VALID,95.0488,VALID,0,VALID,19.7208,VALID,357,VALID,0.655469,
2009-09-06, 01:59:04,VALID,917.661,VALID,0,VALID,95.0335,VALID,0,VALID,19.7208,VALID,357,VALID,0.841797,
2009-09-06, 02:00:04,VALID,917.66,VALID,0,VALID,95.0259,VALID,0,VALID,19.7598,VALID,357,VALID,0.286328,
2009-09-06, 02:01:04,VALID,917.623,VALID,0,VALID,94.942,VALID,0,VALID,19.7793,VALID,357,VALID,0.0269531,
2009-09-06, 02:02:04,VALID,917.623,VALID,0,VALID,94.7819,VALID,0,VALID,19.8003,VALID,357,VALID,0.343359,
2009-09-06, 02:03:04,VALID,917.602,VALID,0,VALID,94.7667,VALID,0,VALID,19.7988,VALID,357,VALID,0.565234,
2009-09-06, 02:04:04,VALID,917.595,VALID,0,VALID,94.7438,VALID,0,VALID,19.8198,VALID,357,VALID,0.609766,
2009-09-06, 02:05:04,VALID,917.565,VALID,0,VALID,94.7286,VALID,0,VALID,19.8198,VALID,357,VALID,0.644141,
2009-09-06, 02:06:04,VALID,917.59,VALID,0,VALID,94.6371,VALID,0,VALID,19.7988,VALID,357,VALID,0.714844,
2009-09-06, 02:07:04,VALID,917.553,VALID,0,VALID,94.5837,VALID,0,VALID,19.7598,VALID,357,VALID,0.61875,
2009-09-06, 02:08:04,VALID,917.554,VALID,0,VALID,94.6371,VALID,0,VALID,19.7598,VALID,357,VALID,0.645703,
2009-09-06, 02:09:04,VALID,917.543,VALID,0,VALID,94.7819,VALID,0,VALID,19.7598,VALID,357,VALID,0.682813,
2009-09-06, 02:10:04,VALID,917.543,VALID,0,VALID,94.9573,VALID,0,VALID,19.7598,VALID,357,VALID,0.875391,
2009-09-06, 02:11:04,VALID,917.525,VALID,0,VALID,94.8963,VALID,0,VALID,19.7793,VALID,357,VALID,0.716406,
2009-09-06, 02:12:04,VALID,917.525,VALID,0,VALID,94.9496,VALID,0,VALID,19.8198,VALID,357,VALID,0.704687,
2009-09-06, 02:13:04,VALID,917.514,VALID,0,VALID,94.9268,VALID,0,VALID,19.7988,VALID,357,VALID,0.898047,
2009-09-06, 02:14:04,VALID,917.469,VALID,0,VALID,94.8429,VALID,0,VALID,19.7988,VALID,357,VALID,0.859766,
2009-09-06, 02:15:04,VALID,917.431,VALID,0,VALID,94.538,VALID,0,VALID,19.8393,VALID,357,VALID,0.970703,
2009-09-06, 02:16:04,VALID,917.45,VALID,0,VALID,94.3245,VALID,0,VALID,19.8573,VALID,357,VALID,0.771094,
2009-09-06, 02:17:04,VALID,917.421,VALID,0,VALID,94.3093,VALID,0,VALID,19.8378,VALID,357,VALID,0.743359,
2009-09-06, 02:18:04,VALID,917.409,VALID,0,VALID,94.3093,VALID,0,VALID,19.8573,VALID,357,VALID,0.607031,
2009-09-06, 02:19:04,VALID,917.418,VALID,0,VALID,94.233,VALID,0,VALID,19.8393,VALID,357,VALID,0.61875,
2009-09-06, 02:20:04,VALID,917.395,VALID,0,VALID,94.3017,VALID,0,VALID,19.8183,VALID,357,VALID,0.478906,
2009-09-06, 02:21:04,VALID,917.376,VALID,0,VALID,94.416,VALID,0,VALID,19.7988,VALID,357,VALID,0.517969,
2009-09-06, 02:22:04,VALID,917.397,VALID,0,VALID,94.2788,VALID,0,VALID,19.7793,VALID,357,VALID,0.401953,
2009-09-06, 02:23:04,VALID,917.379,VALID,0,VALID,94.3703,VALID,0,VALID,19.7598,VALID,357,VALID,0.567578,
2009-09-06, 02:24:04,VALID,917.371,VALID,0,VALID,94.4084,VALID,0,VALID,19.7403,VALID,357,VALID,0.603125,
2009-09-06, 02:25:04,VALID,917.356,VALID,0,VALID,94.538,VALID,0,VALID,19.7403,VALID,357,VALID,0.525391,
2009-09-06, 02:26:04,VALID,917.346,VALID,0,VALID,94.5685,VALID,0,VALID,19.7208,VALID,357,VALID,0.715625,
2009-09-06, 02:27:04,VALID,917.336,VALID,0,VALID,94.6676,VALID,0,VALID,19.7013,VALID,357,VALID,0.419922,
2009-09-06, 02:28:04,VALID,917.314,VALID,0,VALID,94.6523,VALID,0,VALID,19.7208,VALID,357,VALID,0.317578,
2009-09-06, 02:29:04,VALID,917.304,VALID,0,VALID,94.6295,VALID,0,VALID,19.7013,VALID,357,VALID,0.361328,
2009-09-06, 02:30:04,VALID,917.28,VALID,0,VALID,94.5304,VALID,0,VALID,19.7598,VALID,357,VALID,0.320703,
2009-09-06, 02:31:04,VALID,917.254,VALID,0,VALID,94.477,VALID,0,VALID,19.7613,VALID,357,VALID,0.257422,
2009-09-06, 02:32:04,VALID,917.285,VALID,0,VALID,94.5456,VALID,0,VALID,19.7598,VALID,357,VALID,0.334375,
2009-09-06, 02:33:04,VALID,917.246,VALID,0,VALID,94.4694,VALID,0,VALID,19.8003,VALID,357,VALID,0.223828,
2009-09-06, 02:34:04,VALID,917.234,VALID,0,VALID,94.416,VALID,0,VALID,19.8198,VALID,357,VALID,0.260938,
2009-09-06, 02:35:04,VALID,917.25,VALID,0,VALID,94.4999,VALID,0,VALID,19.8183,VALID,357,VALID,0.0121094,
2009-09-06, 02:36:04,VALID,917.231,VALID,0,VALID,94.4617,VALID,0,VALID,19.8573,VALID,357,VALID,0,
2009-09-06, 02:37:04,VALID,917.237,VALID,0,VALID,94.4617,VALID,0,VALID,19.8573,VALID,357,VALID,0,
2009-09-06, 02:38:04,VALID,917.226,VALID,0,VALID,94.2788,VALID,0,VALID,19.8573,VALID,357,VALID,0,
2009-09-06, 02:39:04,VALID,917.222,VALID,0,VALID,94.2483,VALID,0,VALID,19.8573,VALID,357,VALID,0,
2009-09-06, 02:40:04,VALID,917.2,VALID,0,VALID,94.294,VALID,0,VALID,19.8363,VALID,357,VALID,0.353906,
2009-09-06, 02:41:04,VALID,917.22,VALID,0,VALID,94.2864,VALID,0,VALID,19.8378,VALID,357,VALID,0.172656,
2009-09-06, 02:42:04,VALID,917.199,VALID,0,VALID,94.2788,VALID,0,VALID,19.8573,VALID,357,VALID,0.19375,
2009-09-06, 02:43:04,VALID,917.186,VALID,0,VALID,94.1873,VALID,0,VALID,19.8378,VALID,357,VALID,0.323047,
2009-09-06, 02:44:04,VALID,917.179,VALID,0,VALID,94.1568,VALID,0,VALID,19.8378,VALID,357,VALID,0.421875,
2009-09-06, 02:45:04,VALID,917.133,VALID,0,VALID,94.1339,VALID,0,VALID,19.8558,VALID,357,VALID,0.477344,
2009-09-06, 02:46:04,VALID,917.136,VALID,0,VALID,94.012,VALID,0,VALID,19.8573,VALID,357,VALID,0.423828,
2009-09-06, 02:47:04,VALID,917.14,VALID,0,VALID,93.7375,VALID,0,VALID,19.8378,VALID,357,VALID,0.221094,
2009-09-06, 02:48:04,VALID,917.134,VALID,0,VALID,93.4859,VALID,0,VALID,19.7793,VALID,357,VALID,0.377344,
2009-09-06, 02:49:04,VALID,917.11,VALID,0,VALID,93.9662,VALID,0,VALID,19.7403,VALID,357,VALID,0.616016,
2009-09-06, 02:50:04,VALID,917.123,VALID,0,VALID,94.2788,VALID,0,VALID,19.6818,VALID,357,VALID,0.807813,
2009-09-06, 02:51:04,VALID,917.119,VALID,0,VALID,94.7667,VALID,0,VALID,19.6818,VALID,357,VALID,0.819922,
2009-09-06, 02:52:04,VALID,917.092,VALID,0,VALID,94.7591,VALID,0,VALID,19.6623,VALID,357,VALID,0.787891,
2009-09-06, 02:53:04,VALID,917.093,VALID,0,VALID,94.7743,VALID,0,VALID,19.6623,VALID,357,VALID,0.85625,
2009-09-06, 02:54:04,VALID,917.056,VALID,0,VALID,94.5075,VALID,0,VALID,19.7013,VALID,357,VALID,0.863672,
2009-09-06, 02:55:04,VALID,917.06,VALID,0,VALID,94.2483,VALID,0,VALID,19.7223,VALID,357,VALID,0.944531,
2009-09-06, 02:56:04,VALID,917.065,VALID,0,VALID,93.9586,VALID,0,VALID,19.7193,VALID,357,VALID,0.950391,
2009-09-06, 02:57:04,VALID,917.063,VALID,0,VALID,93.6765,VALID,0,VALID,19.7988,VALID,357,VALID,0.796484,
2009-09-06, 02:58:04,VALID,917.038,VALID,0,VALID,93.4478,VALID,0,VALID,19.8183,VALID,357,VALID,1.19375,
2009-09-06, 02:59:04,VALID,917.001,VALID,0,VALID,93.4707,VALID,0,VALID,19.7598,VALID,357,VALID,1.15977,
2009-09-06, 03:00:04,VALID,916.98,VALID,0,VALID,93.7604,VALID,0,VALID,19.7013,VALID,139,VALID,1.45313,
2009-09-06, 03:01:04,VALID,916.958,VALID,0,VALID,94.0577,VALID,0,VALID,19.6623,VALID,139,VALID,1.47969,
2009-09-06, 03:02:04,VALID,916.95,VALID,0,VALID,94.2254,VALID,0,VALID,19.6233,VALID,139,VALID,0.888281,
2009-09-06, 03:03:04,VALID,916.917,VALID,0,VALID,94.4084,VALID,0,VALID,19.5843,VALID,139,VALID,0.79375,
2009-09-06, 03:04:04,VALID,916.899,VALID,0,VALID,94.538,VALID,0,VALID,19.5648,VALID,139,VALID,1.15469,
2009-09-06, 03:05:04,VALID,916.871,VALID,0,VALID,94.8277,VALID,0,VALID,19.5453,VALID,139,VALID,1.15586,
2009-09-06, 03:06:04,VALID,916.843,VALID,0,VALID,94.9192,VALID,0,VALID,19.4673,VALID,139,VALID,0.846875,
2009-09-06, 03:07:04,VALID,916.829,VALID,0,VALID,95.0183,VALID,0,VALID,19.4673,VALID,139,VALID,1.1707,
2009-09-06, 03:08:04,VALID,916.813,VALID,0,VALID,95.1021,VALID,0.107441,VALID,19.4088,VALID,139,VALID,0.621484,
2009-09-06, 03:09:04,VALID,916.781,VALID,0,VALID,95.3003,VALID,0,VALID,19.3893,VALID,139,VALID,0.904297,
2009-09-06, 03:10:04,VALID,916.785,VALID,0,VALID,95.4071,VALID,0,VALID,19.3503,VALID,139,VALID,0.496875,
2009-09-06, 03:11:04,VALID,916.802,VALID,0,VALID,95.5367,VALID,0,VALID,19.3308,VALID,139,VALID,0.482031,
2009-09-06, 03:12:04,VALID,916.818,VALID,0,VALID,95.6357,VALID,0,VALID,19.3308,VALID,139,VALID,0.28125,
2009-09-06, 03:13:04,VALID,916.798,VALID,0,VALID,95.6891,VALID,0,VALID,19.3308,VALID,139,VALID,0.31875,
2009-09-06, 03:14:04,VALID,916.787,VALID,0,VALID,95.6967,VALID,0,VALID,19.3113,VALID,139,VALID,0.584766,
2009-09-06, 03:15:04,VALID,916.782,VALID,0,VALID,95.7425,VALID,0,VALID,19.3323,VALID,139,VALID,0.530078,
2009-09-06, 03:16:04,VALID,916.768,VALID,0,VALID,95.7501,VALID,0,VALID,19.2918,VALID,139,VALID,0.777344,
2009-09-06, 03:17:04,VALID,916.778,VALID,0,VALID,95.8187,VALID,0,VALID,19.2918,VALID,139,VALID,0.655078,
2009-09-06, 03:18:04,VALID,916.772,VALID,0,VALID,95.8645,VALID,0,VALID,19.3113,VALID,139,VALID,0.717188,
2009-09-06, 03:19:04,VALID,916.782,VALID,0,VALID,95.9102,VALID,0,VALID,19.3518,VALID,139,VALID,0.696094,
2009-09-06, 03:20:04,VALID,916.789,VALID,0,VALID,95.8568,VALID,0,VALID,19.3503,VALID,139,VALID,0.725781,
2009-09-06, 03:21:04,VALID,916.786,VALID,0,VALID,95.8263,VALID,0,VALID,19.3698,VALID,139,VALID,0.867969,
2009-09-06, 03:22:04,VALID,916.793,VALID,0,VALID,95.6967,VALID,0,VALID,19.3893,VALID,139,VALID,0.723828,
2009-09-06, 03:23:04,VALID,916.796,VALID,0,VALID,95.5595,VALID,0,VALID,19.3893,VALID,139,VALID,0.615625,
2009-09-06, 03:24:04,VALID,916.822,VALID,0,VALID,94.82,VALID,0,VALID,19.2723,VALID,139,VALID,0.617969,
2009-09-06, 03:25:04,VALID,916.807,VALID,0,VALID,95.1555,VALID,0,VALID,19.2723,VALID,139,VALID,0.584375,
2009-09-06, 03:26:04,VALID,916.843,VALID,0,VALID,95.4299,VALID,0,VALID,19.2723,VALID,139,VALID,0.463281,
2009-09-06, 03:27:04,VALID,916.859,VALID,0,VALID,95.6205,VALID,0.107441,VALID,19.2918,VALID,139,VALID,0.780859,
2009-09-06, 03:28:04,VALID,916.884,VALID,0,VALID,95.6891,VALID,0.107441,VALID,19.2918,VALID,139,VALID,0.841406,
2009-09-06, 03:29:04,VALID,916.872,VALID,0,VALID,95.651,VALID,0.107441,VALID,19.3113,VALID,139,VALID,0.664844,
2009-09-06, 03:30:04,VALID,916.884,VALID,0,VALID,95.6281,VALID,0.107441,VALID,19.2904,VALID,139,VALID,0.973047,
2009-09-06, 03:31:04,VALID,916.872,VALID,0,VALID,95.5443,VALID,0,VALID,19.3113,VALID,139,VALID,0.839844,
2009-09-06, 03:32:04,VALID,916.898,VALID,0,VALID,95.4604,VALID,0,VALID,19.2918,VALID,139,VALID,0.698438,
2009-09-06, 03:33:04,VALID,916.882,VALID,0,VALID,95.3994,VALID,0,VALID,19.2723,VALID,139,VALID,0.623438,
2009-09-06, 03:34:04,VALID,916.873,VALID,0,VALID,95.4375,VALID,0.107441,VALID,19.2723,VALID,139,VALID,0.694922,
2009-09-06, 03:35:04,VALID,916.854,VALID,0,VALID,95.4375,VALID,0.107441,VALID,19.2514,VALID,139,VALID,0.546094,
2009-09-06, 03:36:04,VALID,916.865,VALID,0,VALID,95.3766,VALID,0.107441,VALID,19.2723,VALID,139,VALID,0.585938,
2009-09-06, 03:37:04,VALID,916.866,VALID,0,VALID,95.3537,VALID,0,VALID,19.2528,VALID,139,VALID,0.470313,
2009-09-06, 03:38:04,VALID,916.856,VALID,0,VALID,95.4757,VALID,0,VALID,19.2528,VALID,139,VALID,0.418359,
2009-09-06, 03:39:04,VALID,916.878,VALID,0,VALID,95.5214,VALID,0,VALID,19.2738,VALID,139,VALID,0.479688,
2009-09-06, 03:40:04,VALID,916.923,VALID,0,VALID,95.5443,VALID,0,VALID,19.2738,VALID,139,VALID,0.208594,
2009-09-06, 03:41:04,VALID,916.926,VALID,0,VALID,95.5443,VALID,0,VALID,19.3128,VALID,139,VALID,0.215234,
2009-09-06, 03:42:04,VALID,916.945,VALID,0,VALID,95.5595,VALID,0,VALID,19.3128,VALID,139,VALID,0.247656,
2009-09-06, 03:43:04,VALID,916.962,VALID,0,VALID,95.5595,VALID,0,VALID,19.2918,VALID,139,VALID,0,